[Date Prev][Date Next][Thread Prev][Thread Next] - [Date Index][Thread Index][Author Index]

2 Line ISS Keps 6-20



ISS
1 25544U 98067A   01171.19042427  .00051238  00000-0  56489-3 0  1131
2 25544  51.5712  73.4991 0016874 182.5056 339.6132 15.62409251147542


----
Via the sarex mailing list at AMSAT.ORG courtesy of AMSAT-NA.
To unsubscribe, send "unsubscribe sarex" to Majordomo@amsat.org



AMSAT Top AMSAT Home